Custer, SD

2:34 AM MDT on March 29, 2017 (GMT -0600)
Custer County

Weather History for KCUT - September, 2013

Change the Weather History Date:

Saturday, September 21, 2013

  Actual Average Record
Temperature  
Mean Temperature 59 °F 52 °F  
Max Temperature 80 °F 65 °F 89 °F (1956)
Min Temperature 37 °F 39 °F 22 °F (1953)
Degree Days  
Heating Degree Days 6 13  
Month to date heating degree days 109 193  
Since 1 July heating degree days 206 347  
Cooling Degree Days 0 0  
Month to date cooling degree days 38 11  
Year to date cooling degree days 187 177  
Growing Degree Days 8 (Base 50)    
Moisture  
Dew Point 27 °F    
Average Humidity 41    
Maximum Humidity 70    
Minimum Humidity 11    
Precipitation  
Precipitation 0.00 in 0.05 in 1.30 in (2006)
Month to date precipitation 0.94 1.21  
Year to date precipitation 16.89 16.13  
Sea Level Pressure  
Sea Level Pressure 29.75 in    
Wind  
Wind Speed 6 mph (West)    
Max Wind Speed 21 mph    
Max Gust Speed 30 mph    
Visibility 10 miles    
Events      
T = Trace of Precipitation, MM = Missing Value Source: NWS Daily Summary

Daily Weather History Graph

Daily Weather History Graph

Search for Another Location

Airport or City:

Trip Planner

Search our weather history database for the weather conditions in past years. The results will help you decide how hot, cold, wet, or windy it might be!

Date:

Astronomy

Sep. 21, 2013 Rise Set
Actual Time 6:40 AM MDT 6:53 PM MDT
Civil Twilight 6:12 AM MDT 7:21 PM MDT
Nautical Twilight 5:38 AM MDT 7:55 PM MDT
Astronomical Twilight 5:03 AM MDT 8:29 PM MDT
Moon 7:58 PM MDT (9/21) 9:07 AM MDT (9/21)
Length of Visible Light 13h 09m
Length of Day
12h 12m
Waning Gibbous, 94% of the Moon is Illuminated
Sep 21
Waning Gibbous
Sep 26
Last Quarter
Oct 4
New
Oct 11
First Quarter
Oct 18
Full

Hourly Weather History & Observations

Time (MDT) Temp. Windchill Dew Point Humidity Pressure Visibility Wind Dir Wind Speed Gust Speed Precip Events Conditions
12:53 AM 37.9 °F 35.5 °F 28.9 °F 70% 29.94 in 10.0 mi WNW 3.5 mph - N/A   Clear
1:53 AM 39.0 °F 36.8 °F 28.9 °F 67% 29.91 in 10.0 mi WNW 3.5 mph - N/A   Clear
2:53 AM 37.9 °F - 28.9 °F 70% 29.89 in 10.0 mi Calm Calm - N/A   Clear
3:53 AM 41.0 °F 39.0 °F 28.0 °F 60% 29.85 in 10.0 mi WNW 3.5 mph - N/A   Clear
4:53 AM 48.0 °F - 30.9 °F 52% 29.82 in 10.0 mi WSW 4.6 mph - N/A   Clear
5:53 AM 48.0 °F - 34.0 °F 58% 29.81 in 10.0 mi West 6.9 mph - N/A   Clear
6:53 AM 55.0 °F - 32.0 °F 42% 29.81 in 10.0 mi West 8.1 mph - N/A   Clear
7:53 AM 59.0 °F - 30.9 °F 35% 29.81 in 10.0 mi WSW 6.9 mph - N/A   Clear
8:53 AM 64.9 °F - 30.0 °F 27% 29.80 in 10.0 mi WSW 8.1 mph - N/A   Clear
9:53 AM 68.0 °F - 27.0 °F 21% 29.80 in 10.0 mi WSW 8.1 mph 18.4 mph N/A   Clear
10:53 AM 70.0 °F - 28.0 °F 21% 29.80 in 10.0 mi SW 9.2 mph - N/A   Clear
11:53 AM 73.9 °F - 26.1 °F 17% 29.77 in 10.0 mi WSW 11.5 mph 18.4 mph N/A   Clear
12:53 PM 77.0 °F - 23.0 °F 13% 29.75 in 10.0 mi West 16.1 mph 25.3 mph N/A   Clear
1:53 PM 78.1 °F - 24.1 °F 14% 29.72 in 10.0 mi West 13.8 mph 23.0 mph N/A   Clear
2:53 PM 80.1 °F - 21.9 °F 12% 29.71 in 10.0 mi West 15.0 mph 23.0 mph N/A   Clear
3:53 PM 79.0 °F - 23.0 °F 13% 29.69 in 10.0 mi West 12.7 mph 23.0 mph N/A   Clear
4:53 PM 78.1 °F - 23.0 °F 13% 29.66 in 10.0 mi WNW 10.4 mph 16.1 mph N/A   Clear
5:53 PM 77.0 °F - 25.0 °F 15% 29.66 in 10.0 mi West 5.8 mph - N/A   Clear
6:53 PM 71.1 °F - 25.0 °F 18% 29.65 in 10.0 mi Calm Calm - N/A   Clear
7:53 PM 63.0 °F - 26.1 °F 25% 29.67 in 10.0 mi Calm Calm - N/A   Clear
8:53 PM 59.0 °F - 27.0 °F 29% 29.66 in 10.0 mi Calm Calm - N/A   Partly Cloudy
9:53 PM 57.0 °F - 28.0 °F 33% 29.65 in 10.0 mi Calm Calm - N/A   Partly Cloudy
10:53 PM 52.0 °F - 28.0 °F 40% 29.65 in 10.0 mi Calm Calm - N/A   Clear
11:53 PM 59.0 °F - 28.0 °F 31% 29.61 in 10.0 mi West 4.6 mph - N/A   Clear